Regional Weather Roundup
Issued by NWS Bismarck, ND

Home | Current Version | Previous Version | Text Only | Print | Product List | Glossary On
Versions: 1 2 3 4 5 6 7 8 9 10 11 12 13 14 15 16 17 18 19 20 21 22 23 24 25 26 27 28 29 30 31 32 33 34 35 36 37 38 39 40 41 42 43 44 45 46 47 48 49 50
499
ASUS43 KBIS 021410
RWRBIS

NWR BROADCAST TEXT
NATIONAL WEATHER SERVICE BISMARCK ND
800 AM CST FRI DEC 02 2016

NOTE: "FAIR" INDICATES FEW OR NO CLOUDS BELOW 12,000 FEET WITH NO
SIGNIFICANT WEATHER AND/OR OBSTRUCTIONS TO VISIBILITY.


CITY           SKY/WX    TMP DP  RH WIND       PRES   REMARKS
WILLISTON      CLOUDY    28  24  85 S5        30.17R
MINOT          CLOUDY    26  20  77 CALM      30.20R
MINOT AFB      CLOUDY    25  20  79 S5        30.19R WCI  19
BISMARCK       CLOUDY    24  20  84 E3        30.23R
DICKINSON      CLOUDY    22  19  89 S7        30.13R WCI  13
GARRISON         N/A     26  22  84 SE5       30.18R
HETTINGER ARPT CLOUDY    24  21  88 S5        30.16R WCI  18
JAMESTOWN      CLOUDY    26  20  77 N7        30.21R WCI  18
BEACH          FLURRIES  25  23  93 SW3       30.17R
CARRINGTON     CLOUDY    27  21  80 N7        30.23S WCI  19
HAZEN          CLOUDY    25  23  93 SE5       30.23R WCI  19
RUGBY            N/A     25  23  93 CALM      30.21R
STANLEY        CLOUDY    25  25 100 CALM      30.18S
TIOGA          CLOUDY    25  25 100 SE7       30.17S WCI  17
WATFORD CITY   CLOUDY    25  25 100 S6        30.16S WCI  18
$$

CITY           SKY/WX    TMP DP  RH WIND       PRES   REMARKS
GRAND FORKS    CLOUDY    29  22  75 CALM      30.23R
GRAND FORKS AF CLOUDY    28  22  79 CALM      30.23R
DEVILS LAKE    CLOUDY    28  21  75 N5        30.21R
FARGO          CLOUDY    28  20  71 N9        30.23R WCI  19
CANDO          CLOUDY    27  25  93 NW5       30.23R
CAVALIER         N/A     27  25  93 NW3       30.23R
GRAFTON        CLOUDY    28  27  93 CALM      30.24S
GWINNER        CLOUDY    28  23  80 NW6       30.23R
LANGDON        CLOUDY    28  25  86 N3        30.18S
ROLLA          CLOUDY    27  23  86 W5        30.19R
WALHALLA         N/A     27  27 100 CALM      30.23R
$$

CITY           SKY/WX    TMP DP  RH WIND       PRES   REMARKS
ABERDEEN       CLOUDY    28  20  71 NW8       30.23R WCI  20
MOBRIDGE       CLOUDY    28  23  81 CALM      30.18R
BUFFALO          N/A     23  21  92 W5        30.07R WCI  17
RAPID CITY     CLOUDY    25  21  85 CALM      30.14R
GLASGOW        CLOUDY    26  24  92 W10       30.14R WCI  16
SIDNEY         CLOUDY    23  22  96 SE3       30.16S
WOLF POINT     CLOUDY    29  25  85 W3        30.16R
GLENDIVE       CLOUDY    13  10  88 SW6       30.17R WCI   4
MILES CITY     CLOUDY    20  17  88 S6        30.18R WCI  12
BAKER          CLOUDY    21  19  92 W8        30.15R WCI  11
$$

CITY           SKY/WX    TMP DP  RH WIND       PRES   REMARKS
BILLINGS       CLOUDY    30  21  69 SW9       30.18R
GREAT FALLS    CLEAR     23  19  85 S14       30.13R WCI  11
REGINA         FRZ DRZL  25  25 100 W7        30.12S FOG     WCI  17
ESTEVAN        FLURRIES  25  23  93 S3        30.16S
$$





USA.gov is the U.S. government's official web portal to all federal, state and local government web resources and services.